sat.trackr.live / text

‹ back to catalog

STARLINK-37362

NORAD 68974 · 2026-099Z

PAYLOAD ACTIVE UNKNOWN

§ Identity

Operator
Country
US
Launch date
2026-05-01
Launch site
AFETR
Launch vehicle
Mass (kg)
RCS (m²)

Purposes: comms

External: N2YO · Heavens-Above · Gunter

§ Orbital elements

Epoch: 2026-05-25T04:00:03.998880Z

Period
92.58 min
Inclination
53.1597°
Eccentricity
0.0001034
Mean motion
15.55442683 rev/d
Perigee alt
400.2 km
Apogee alt
401.6 km
Semi-major
6,779.0 km
B*
-3.2917e-2
RAAN
270.3456°
Arg perigee
42.3273°
Mean anomaly
115.0190°
Rev number
496

§ Raw data

STARLINK-373621 68974U 26099Z   26145.16671295 -.02039102  00000+0 -32917-1 0  99962 68974  53.1597 270.3456 0001034  42.3273 115.0190 15.55442683  4961

JSON: /api/v1/satellites/68974 · /tle

For live sub-satellite position, see the globe view (requires WebGL).

§ Visibility from observer

Set your observer location to see the next 7 days of passes ≥ 10°. The values pass through the URL so the page stays shareable.

No JS? Fill the form by hand. The geolocation button needs JavaScript.